Time,TemperatureF,DewpointF,PressureIn,WindDirection,WindDirectionDegrees,WindSpeedMPH,WindSpeedGustMPH,Humidity,HourlyPrecipIn,Conditions,Clouds,dailyrainin,SoftwareType,DateUTC
2013-03-01 00:00:00,34.0,26.3,29.94,NNW,342,0.0,2.0,73,0.00,,---,0.00,VWS V14.01,2013-03-01 05:00:00,
2013-03-01 00:02:00,34.0,26.3,29.94,NNW,342,0.0,0.0,73,0.00,,---,0.00,VWS V14.01,2013-03-01 05:02:00,
2013-03-01 00:04:00,33.9,26.2,29.94,NNW,342,1.0,2.0,73,0.00,,---,0.00,VWS V14.01,2013-03-01 05:04:00,
2013-03-01 00:10:00,34.2,26.1,29.94,NNW,339,1.0,3.0,72,0.00,,---,0.00,VWS V14.01,2013-03-01 05:10:00,
2013-03-01 00:16:00,34.4,26.3,29.94,NNW,338,2.0,3.0,72,0.00,,---,0.00,VWS V14.01,2013-03-01 05:16:00,
2013-03-01 00:20:00,34.4,26.3,29.94,NNW,333,1.0,3.0,72,0.00,,---,0.00,VWS V14.01,2013-03-01 05:20:00,
2013-03-01 00:26:00,34.4,26.3,29.94,NNW,347,2.0,3.0,72,0.00,,---,0.00,VWS V14.01,2013-03-01 05:26:00,
2013-03-01 00:30:00,32.1,25.7,29.94,NNW,346,0.0,1.0,77,0.00,,---,0.00,VWS V14.01,2013-03-01 05:30:00,
2013-03-01 00:32:00,34.5,26.1,29.94,NNW,347,1.0,2.0,71,0.00,,---,0.00,VWS V14.01,2013-03-01 05:32:00,
2013-03-01 00:38:00,34.5,26.1,29.94,NNW,346,0.0,2.0,71,0.00,,---,0.00,VWS V14.01,2013-03-01 05:38:00,
2013-03-01 00:44:00,34.1,26.4,29.95,NNW,346,0.0,2.0,73,0.00,,---,0.00,VWS V14.01,2013-03-01 05:44:00,
2013-03-01 00:50:00,33.9,26.2,29.94,NNW,345,0.0,2.0,73,0.00,,---,0.00,VWS V14.01,2013-03-01 05:50:00,
2013-03-01 00:56:00,34.0,26.3,29.94,NNW,345,1.0,2.0,73,0.00,,---,0.00,VWS V14.01,2013-03-01 05:56:00,
2013-03-01 01:00:00,30.8,25.7,29.94,NNW,345,0.0,1.0,81,0.00,,---,0.00,VWS V14.01,2013-03-01 06:00:00,
2013-03-01 01:02:00,33.8,26.1,29.94,NNW,346,1.0,1.0,73,0.00,,---,0.00,VWS V14.01,2013-03-01 06:02:00,
2013-03-01 01:08:00,33.7,26.0,29.94,NNW,346,0.0,1.0,73,0.00,,---,0.00,VWS V14.01,2013-03-01 06:08:00,
2013-03-01 01:14:00,33.6,26.2,29.94,NNW,346,0.0,1.0,74,0.00,,---,0.00,VWS V14.01,2013-03-01 06:14:00,
2013-03-01 01:20:00,33.0,26.0,29.94,NNW,346,0.0,1.0,75,0.00,,---,0.00,VWS V14.01,2013-03-01 06:20:00,
2013-03-01 01:26:00,32.4,25.7,29.94,NNW,346,0.0,1.0,76,0.00,,---,0.00,VWS V14.01,2013-03-01 06:26:00,
2013-03-01 01:30:00,30.6,25.5,29.94,NNW,346,0.0,0.0,81,0.00,,---,0.00,VWS V14.01,2013-03-01 06:30:00,
2013-03-01 01:32:00,32.0,25.6,29.94,NNW,346,0.0,0.0,77,0.00,,---,0.00,VWS V14.01,2013-03-01 06:32:00,
2013-03-01 01:38:00,31.9,25.8,29.94,NNW,346,0.0,0.0,78,0.00,,---,0.00,VWS V14.01,2013-03-01 06:38:00,
2013-03-01 01:44:00,31.7,25.9,29.94,NNW,346,0.0,0.0,79,0.00,,---,0.00,VWS V14.01,2013-03-01 06:44:00,
2013-03-01 01:50:00,31.4,25.6,29.94,NNW,346,0.0,1.0,79,0.00,,---,0.00,VWS V14.01,2013-03-01 06:50:00,
2013-03-01 01:56:00,31.0,25.6,29.94,NNW,346,0.0,1.0,80,0.00,,---,0.00,VWS V14.01,2013-03-01 06:56:00,
2013-03-01 02:00:00,29.4,24.9,29.94,NNW,346,0.0,1.0,83,0.00,,---,0.00,VWS V14.01,2013-03-01 07:00:00,
2013-03-01 02:02:00,30.8,25.7,29.94,NNW,346,0.0,0.0,81,0.00,,---,0.00,VWS V14.01,2013-03-01 07:02:00,
2013-03-01 02:08:00,31.0,25.6,29.94,NNW,346,0.0,0.0,80,0.00,,---,0.00,VWS V14.01,2013-03-01 07:08:00,
2013-03-01 02:14:00,30.9,25.5,29.94,NNW,346,0.0,0.0,80,0.00,,---,0.00,VWS V14.01,2013-03-01 07:14:00,
2013-03-01 02:20:00,30.6,25.5,29.94,NNW,346,0.0,0.0,81,0.00,,---,0.00,VWS V14.01,2013-03-01 07:20:00,
2013-03-01 02:26:00,30.6,25.5,29.94,NNW,346,0.0,0.0,81,0.00,,---,0.00,VWS V14.01,2013-03-01 07:26:00,
2013-03-01 02:30:00,29.1,25.2,29.94,NNW,346,0.0,1.0,85,0.00,,---,0.00,VWS V14.01,2013-03-01 07:30:00,
2013-03-01 02:32:00,30.5,25.4,29.94,NNW,346,0.0,0.0,81,0.00,,---,0.00,VWS V14.01,2013-03-01 07:32:00,
2013-03-01 02:38:00,30.3,25.5,29.94,NNW,346,0.0,0.0,82,0.00,,---,0.00,VWS V14.01,2013-03-01 07:38:00,
2013-03-01 02:44:00,30.0,25.5,29.94,NNW,345,0.0,0.0,83,0.00,,---,0.00,VWS V14.01,2013-03-01 07:44:00,
2013-03-01 02:51:00,30.0,25.5,29.94,NNW,346,1.0,1.0,83,0.00,,---,0.00,VWS V14.01,2013-03-01 07:51:00,
2013-03-01 02:57:00,29.6,25.1,29.94,NNW,346,0.0,1.0,83,0.00,,---,0.00,VWS V14.01,2013-03-01 07:57:00,
2013-03-01 03:00:00,29.2,25.0,29.95,NNW,345,0.0,1.0,84,0.00,,---,0.00,VWS V14.01,2013-03-01 08:00:00,
2013-03-01 03:03:00,29.3,24.8,29.94,NNW,346,0.0,0.0,83,0.00,,---,0.00,VWS V14.01,2013-03-01 08:03:00,
2013-03-01 03:09:00,29.0,24.8,29.94,NNW,346,0.0,0.0,84,0.00,,---,0.00,VWS V14.01,2013-03-01 08:09:00,
2013-03-01 03:15:00,29.0,24.8,29.94,NNW,346,0.0,0.0,84,0.00,,---,0.00,VWS V14.01,2013-03-01 08:15:00,
2013-03-01 03:21:00,29.0,25.1,29.94,NNW,346,0.0,1.0,85,0.00,,---,0.00,VWS V14.01,2013-03-01 08:21:00,
2013-03-01 03:27:00,29.1,25.2,29.94,NNW,346,0.0,1.0,85,0.00,,---,0.00,VWS V14.01,2013-03-01 08:27:00,
2013-03-01 03:30:00,29.7,25.2,29.97,NNW,346,0.0,0.0,83,0.00,,---,0.00,VWS V14.01,2013-03-01 08:30:00,
2013-03-01 03:33:00,29.3,25.4,29.94,NNW,346,0.0,1.0,85,0.00,,---,0.00,VWS V14.01,2013-03-01 08:33:00,
2013-03-01 03:39:00,29.5,25.3,29.95,NNW,346,0.0,1.0,84,0.00,,---,0.00,VWS V14.01,2013-03-01 08:39:00,
2013-03-01 03:45:00,29.9,25.4,29.94,NNW,346,0.0,1.0,83,0.00,,---,0.00,VWS V14.01,2013-03-01 08:45:00,
2013-03-01 03:51:00,29.9,25.4,29.95,NNW,346,0.0,1.0,83,0.00,,---,0.00,VWS V14.01,2013-03-01 08:51:00,
2013-03-01 03:57:00,29.4,25.2,29.95,NNW,346,0.0,1.0,84,0.00,,---,0.00,VWS V14.01,2013-03-01 08:57:00,
2013-03-01 04:00:00,28.8,25.1,29.97,NNW,346,0.0,1.0,86,0.00,,---,0.00,VWS V14.01,2013-03-01 09:00:00,
2013-03-01 04:03:00,29.1,25.2,29.95,NNW,346,0.0,0.0,85,0.00,,---,0.00,VWS V14.01,2013-03-01 09:03:00,
2013-03-01 04:09:00,29.5,25.3,29.95,NNW,346,0.0,0.0,84,0.00,,---,0.00,VWS V14.01,2013-03-01 09:09:00,
2013-03-01 04:15:00,29.8,25.3,29.96,NNW,346,0.0,0.0,83,0.00,,---,0.00,VWS V14.01,2013-03-01 09:15:00,
2013-03-01 04:21:00,29.7,25.2,29.96,NNW,346,0.0,0.0,83,0.00,,---,0.00,VWS V14.01,2013-03-01 09:21:00,
2013-03-01 04:27:00,29.7,25.2,29.96,NNW,346,0.0,0.0,83,0.00,,---,0.00,VWS V14.01,2013-03-01 09:27:00,
2013-03-01 04:30:00,28.1,24.7,29.98,NNW,347,0.0,1.0,87,0.00,,---,0.00,VWS V14.01,2013-03-01 09:30:00,
2013-03-01 04:33:00,29.7,25.2,29.96,NNW,346,0.0,0.0,83,0.00,,---,0.00,VWS V14.01,2013-03-01 09:33:00,
2013-03-01 04:39:00,29.6,25.4,29.97,NNW,346,1.0,1.0,84,0.00,,---,0.00,VWS V14.01,2013-03-01 09:39:00,
2013-03-01 04:45:00,29.3,25.1,29.97,NNW,346,0.0,1.0,84,0.00,,---,0.00,VWS V14.01,2013-03-01 09:45:00,
2013-03-01 04:51:00,29.0,25.1,29.97,NNW,346,0.0,1.0,85,0.00,,---,0.00,VWS V14.01,2013-03-01 09:51:00,
2013-03-01 04:57:00,28.7,25.0,29.97,NNW,346,0.0,1.0,86,0.00,,---,0.00,VWS V14.01,2013-03-01 09:57:00,
2013-03-01 05:00:00,27.8,24.7,29.98,NNW,347,0.0,1.0,88,0.00,,---,0.00,VWS V14.01,2013-03-01 10:00:00,
2013-03-01 05:03:00,28.8,25.1,29.98,NNW,346,1.0,1.0,86,0.00,,---,0.00,VWS V14.01,2013-03-01 10:03:00,
2013-03-01 05:09:00,28.7,25.0,29.97,NNW,347,0.0,1.0,86,0.00,,---,0.00,VWS V14.01,2013-03-01 10:09:00,
2013-03-01 05:15:00,28.7,25.0,29.98,NNW,347,0.0,1.0,86,0.00,,---,0.00,VWS V14.01,2013-03-01 10:15:00,
2013-03-01 05:21:00,28.4,24.8,29.98,NNW,347,0.0,1.0,86,0.00,,---,0.00,VWS V14.01,2013-03-01 10:21:00,
2013-03-01 05:28:00,28.2,24.8,29.98,NNW,347,0.0,1.0,87,0.00,,---,0.00,VWS V14.01,2013-03-01 10:28:00,
2013-03-01 05:30:00,27.8,25.0,29.98,NNW,347,0.0,1.0,89,0.00,,---,0.00,VWS V14.01,2013-03-01 10:30:00,
2013-03-01 05:34:00,28.0,24.6,29.98,NNW,347,0.0,0.0,87,0.00,,---,0.00,VWS V14.01,2013-03-01 10:34:00,
2013-03-01 05:40:00,27.9,24.8,29.98,NNW,347,0.0,1.0,88,0.00,,---,0.00,VWS V14.01,2013-03-01 10:40:00,
2013-03-01 05:46:00,27.9,24.8,29.98,NNW,347,0.0,1.0,88,0.00,,---,0.00,VWS V14.01,2013-03-01 10:46:00,
2013-03-01 05:52:00,27.9,24.8,29.98,NNW,347,0.0,1.0,88,0.00,,---,0.00,VWS V14.01,2013-03-01 10:52:00,
2013-03-01 05:58:00,27.8,24.7,29.98,NNW,347,0.0,1.0,88,0.00,,---,0.00,VWS V14.01,2013-03-01 10:58:00,
2013-03-01 06:00:00,27.4,24.9,29.97,NNW,347,0.0,1.0,90,0.00,,---,0.00,VWS V14.01,2013-03-01 11:00:00,
2013-03-01 06:04:00,27.8,24.7,29.98,NNW,347,0.0,0.0,88,0.00,,---,0.00,VWS V14.01,2013-03-01 11:04:00,
2013-03-01 06:10:00,27.8,24.7,29.98,NNW,347,0.0,1.0,88,0.00,,---,0.00,VWS V14.01,2013-03-01 11:10:00,
2013-03-01 06:16:00,27.9,24.8,29.98,NNW,347,0.0,1.0,88,0.00,,---,0.00,VWS V14.01,2013-03-01 11:16:00,
2013-03-01 06:22:00,27.8,24.7,29.99,NNW,347,1.0,1.0,88,0.00,,---,0.00,VWS V14.01,2013-03-01 11:22:00,
2013-03-01 06:28:00,27.8,25.0,29.98,NNW,347,0.0,1.0,89,0.00,,---,0.00,VWS V14.01,2013-03-01 11:28:00,
2013-03-01 06:30:00,28.0,25.7,29.98,NNW,347,0.0,1.0,91,0.00,,---,0.00,VWS V14.01,2013-03-01 11:30:00,
2013-03-01 06:34:00,27.8,25.0,29.98,NNW,347,0.0,0.0,89,0.00,,---,0.00,VWS V14.01,2013-03-01 11:34:00,
2013-03-01 06:40:00,27.8,25.0,29.98,NNW,347,0.0,0.0,89,0.00,,---,0.00,VWS V14.01,2013-03-01 11:40:00,
2013-03-01 06:46:00,27.6,24.5,29.98,NNW,347,0.0,0.0,88,0.00,,---,0.00,VWS V14.01,2013-03-01 11:46:00,
2013-03-01 06:52:00,27.3,24.5,29.98,NNW,347,0.0,1.0,89,0.00,,---,0.00,VWS V14.01,2013-03-01 11:52:00,
2013-03-01 06:58:00,27.4,25.1,29.97,NNW,347,0.0,1.0,91,0.00,,---,0.00,VWS V14.01,2013-03-01 11:58:00,
2013-03-01 07:00:00,31.4,28.3,29.98,NNW,347,0.0,1.0,88,0.00,,---,0.00,VWS V14.01,2013-03-01 12:00:00,
2013-03-01 07:04:00,27.4,24.9,29.98,NNW,347,0.0,0.0,90,0.00,,---,0.00,VWS V14.01,2013-03-01 12:04:00,
2013-03-01 07:10:00,27.1,24.6,29.97,NNW,347,0.0,0.0,90,0.00,,---,0.00,VWS V14.01,2013-03-01 12:10:00,
2013-03-01 07:16:00,27.3,25.0,29.98,NNW,347,0.0,1.0,91,0.00,,---,0.00,VWS V14.01,2013-03-01 12:16:00,
2013-03-01 07:22:00,27.4,25.1,29.98,NNW,347,0.0,1.0,91,0.00,,---,0.00,VWS V14.01,2013-03-01 12:22:00,
2013-03-01 07:28:00,27.9,25.9,29.98,NNW,347,0.0,1.0,92,0.00,,---,0.00,VWS V14.01,2013-03-01 12:28:00,
2013-03-01 07:30:00,34.0,29.1,30.00,NNW,347,0.0,1.0,82,0.00,,---,0.00,VWS V14.01,2013-03-01 12:30:00,
2013-03-01 07:35:00,28.1,25.8,29.98,NNW,347,0.0,0.0,91,0.00,,---,0.00,VWS V14.01,2013-03-01 12:35:00,
2013-03-01 07:41:00,28.2,25.9,29.98,NNW,347,0.0,0.0,91,0.00,,---,0.00,VWS V14.01,2013-03-01 12:41:00,
2013-03-01 07:47:00,28.3,25.8,29.98,NNW,346,0.0,1.0,90,0.00,,---,0.00,VWS V14.01,2013-03-01 12:47:00,
2013-03-01 07:53:00,28.9,26.6,29.98,NNW,347,0.0,1.0,91,0.00,,---,0.00,VWS V14.01,2013-03-01 12:53:00,
2013-03-01 07:59:00,30.9,28.3,29.98,NNW,347,0.0,1.0,90,0.00,,---,0.00,VWS V14.01,2013-03-01 12:59:00,
2013-03-01 08:00:00,34.9,29.4,30.00,NNW,340,0.0,2.0,80,0.00,,---,0.00,VWS V14.01,2013-03-01 13:00:00,
2013-03-01 08:05:00,32.2,28.2,29.99,NNW,346,0.0,0.0,85,0.00,,---,0.00,VWS V14.01,2013-03-01 13:05:00,
2013-03-01 08:11:00,32.7,28.4,29.99,NNW,346,0.0,0.0,84,0.00,,---,0.00,VWS V14.01,2013-03-01 13:11:00,
2013-03-01 08:17:00,33.1,28.8,29.99,NNW,346,0.0,0.0,84,0.00,,---,0.00,VWS V14.01,2013-03-01 13:17:00,
2013-03-01 08:23:00,33.6,28.7,30.00,NNW,346,0.0,0.0,82,0.00,,---,0.00,VWS V14.01,2013-03-01 13:23:00,
2013-03-01 08:29:00,33.9,29.0,30.00,NNW,345,1.0,1.0,82,0.00,,---,0.00,VWS V14.01,2013-03-01 13:29:00,
2013-03-01 08:30:00,37.7,30.5,30.00,WNW,283,1.0,3.0,75,0.00,,---,0.00,VWS V14.01,2013-03-01 13:30:00,
2013-03-01 08:35:00,34.9,30.0,30.00,NNW,345,0.0,0.0,82,0.00,,---,0.00,VWS V14.01,2013-03-01 13:35:00,
2013-03-01 08:41:00,35.3,29.8,30.00,NNW,346,0.0,1.0,80,0.00,,---,0.00,VWS V14.01,2013-03-01 13:41:00,
2013-03-01 08:47:00,34.9,29.4,30.00,NNW,342,0.0,2.0,80,0.00,,---,0.00,VWS V14.01,2013-03-01 13:47:00,
2013-03-01 08:53:00,34.8,29.6,30.00,NNW,340,0.0,2.0,81,0.00,,---,0.00,VWS V14.01,2013-03-01 13:53:00,
2013-03-01 08:59:00,34.9,29.4,30.00,NNW,340,1.0,2.0,80,0.00,,---,0.00,VWS V14.01,2013-03-01 13:59:00,
2013-03-01 09:00:00,40.9,30.8,29.99,NNE,17,0.0,3.0,67,0.00,,---,0.00,VWS V14.01,2013-03-01 14:00:00,
2013-03-01 09:05:00,35.2,29.7,30.00,NW,323,0.0,2.0,80,0.00,,---,0.00,VWS V14.01,2013-03-01 14:05:00,
2013-03-01 09:11:00,35.8,30.2,30.00,NNW,336,0.0,2.0,80,0.00,,---,0.00,VWS V14.01,2013-03-01 14:11:00,
2013-03-01 09:17:00,36.5,30.6,30.00,NNW,338,1.0,2.0,79,0.00,,---,0.00,VWS V14.01,2013-03-01 14:17:00,
2013-03-01 09:23:00,37.1,30.9,30.00,NNW,343,0.0,2.0,78,0.00,,---,0.00,VWS V14.01,2013-03-01 14:23:00,
2013-03-01 09:29:00,37.6,30.7,30.00,NW,306,2.0,3.0,76,0.00,,---,0.00,VWS V14.01,2013-03-01 14:29:00,
2013-03-01 09:30:00,43.1,30.2,29.99,NW,312,1.0,3.0,60,0.00,,---,0.00,VWS V14.01,2013-03-01 14:30:00,
2013-03-01 09:35:00,38.2,31.3,30.00,North,352,0.0,3.0,76,0.00,,---,0.00,VWS V14.01,2013-03-01 14:35:00,
2013-03-01 09:41:00,38.8,30.6,30.00,NW,312,1.0,3.0,72,0.00,,---,0.00,VWS V14.01,2013-03-01 14:41:00,
2013-03-01 09:47:00,39.5,29.8,30.00,NNW,338,0.0,3.0,68,0.00,,---,0.00,VWS V14.01,2013-03-01 14:47:00,
2013-03-01 09:53:00,40.3,31.0,30.00,NNW,334,0.0,3.0,69,0.00,,---,0.00,VWS V14.01,2013-03-01 14:53:00,
2013-03-01 09:59:00,40.8,31.1,29.99,NNE,18,1.0,3.0,68,0.00,,---,0.00,VWS V14.01,2013-03-01 14:59:00,
2013-03-01 10:00:00,43.9,30.1,29.99,SSE,149,1.0,6.0,58,0.00,,---,0.00,VWS V14.01,2013-03-01 15:00:00,
2013-03-01 10:05:00,41.6,30.7,29.99,WSW,250,2.0,2.0,65,0.00,,---,0.00,VWS V14.01,2013-03-01 15:05:00,
2013-03-01 10:11:00,42.4,30.7,30.00,WNW,302,1.0,2.0,63,0.00,,---,0.00,VWS V14.01,2013-03-01 15:11:00,
2013-03-01 10:17:00,42.9,30.0,30.00,NW,304,0.0,2.0,60,0.00,,---,0.00,VWS V14.01,2013-03-01 15:17:00,
2013-03-01 10:23:00,43.0,28.8,29.99,WNW,297,2.0,3.0,57,0.00,,---,0.00,VWS V14.01,2013-03-01 15:23:00,
2013-03-01 10:29:00,43.1,29.3,29.99,NW,316,1.0,3.0,58,0.00,,---,0.00,VWS V14.01,2013-03-01 15:29:00,
2013-03-01 10:30:00,46.5,30.8,29.98,NNW,332,4.0,8.0,54,0.00,,---,0.00,VWS V14.01,2013-03-01 15:30:00,
2013-03-01 10:35:00,43.5,30.5,29.99,SSE,167,2.0,2.0,60,0.00,,---,0.00,VWS V14.01,2013-03-01 15:35:00,
2013-03-01 10:41:00,43.6,30.2,29.99,NE,39,0.0,3.0,59,0.00,,---,0.00,VWS V14.01,2013-03-01 15:41:00,
2013-03-01 10:47:00,44.3,30.0,29.99,NNW,328,4.0,4.0,57,0.00,,---,0.00,VWS V14.01,2013-03-01 15:47:00,
2013-03-01 10:54:00,44.0,29.8,29.99,NNW,332,4.0,6.0,57,0.00,,---,0.00,VWS V14.01,2013-03-01 15:54:00,
2013-03-01 11:00:00,43.9,29.2,29.99,NW,304,0.0,6.0,56,0.00,,---,0.00,VWS V14.01,2013-03-01 16:00:00,
2013-03-01 11:06:00,44.2,29.5,29.99,WSW,240,0.0,3.0,56,0.00,,---,0.00,VWS V14.01,2013-03-01 16:06:00,
2013-03-01 11:14:00,44.7,29.5,29.99,NNE,12,4.0,5.0,55,0.00,,---,0.00,VWS V14.01,2013-03-01 16:14:00,
2013-03-01 11:20:00,45.2,30.5,29.98,NW,311,2.0,5.0,56,0.00,,---,0.00,VWS V14.01,2013-03-01 16:20:00,
2013-03-01 11:26:00,45.9,29.3,29.98,SSE,167,2.0,5.0,52,0.00,,---,0.00,VWS V14.01,2013-03-01 16:26:00,
2013-03-01 11:30:00,47.9,30.2,29.96,SW,226,1.0,7.0,50,0.00,,---,0.00,VWS V14.01,2013-03-01 16:30:00,
2013-03-01 11:32:00,46.4,29.8,29.98,NNW,341,3.0,7.0,52,0.00,,---,0.00,VWS V14.01,2013-03-01 16:32:00,
2013-03-01 11:38:00,46.3,29.6,29.98,NNW,342,0.0,7.0,52,0.00,,---,0.00,VWS V14.01,2013-03-01 16:38:00,
2013-03-01 11:44:00,46.3,29.6,29.98,NE,43,2.0,7.0,52,0.00,,---,0.00,VWS V14.01,2013-03-01 16:44:00,
2013-03-01 11:50:00,46.7,30.0,29.98,South,188,1.0,7.0,52,0.00,,---,0.00,VWS V14.01,2013-03-01 16:50:00,
2013-03-01 11:56:00,47.8,30.6,29.98,NE,46,1.0,7.0,51,0.00,,---,0.00,VWS V14.01,2013-03-01 16:56:00,
2013-03-01 12:00:00,50.3,30.9,29.94,NNW,346,5.0,8.0,47,0.00,,---,0.00,VWS V14.01,2013-03-01 17:00:00,
2013-03-01 12:02:00,48.7,30.4,29.97,WNW,294,1.0,4.0,49,0.00,,---,0.00,VWS V14.01,2013-03-01 17:02:00,
2013-03-01 12:08:00,48.5,30.7,29.97,NW,306,1.0,5.0,50,0.00,,---,0.00,VWS V14.01,2013-03-01 17:08:00,
2013-03-01 12:14:00,48.2,30.5,29.97,NNW,348,0.0,5.0,50,0.00,,---,0.00,VWS V14.01,2013-03-01 17:14:00,
2013-03-01 12:20:00,48.5,29.7,29.97,NW,309,0.0,5.0,48,0.00,,---,0.00,VWS V14.01,2013-03-01 17:20:00,
2013-03-01 12:26:00,48.0,29.8,29.97,ESE,117,2.0,7.0,49,0.00,,---,0.00,VWS V14.01,2013-03-01 17:26:00,
2013-03-01 12:30:00,52.6,31.9,29.92,South,172,0.0,5.0,45,0.00,,---,0.00,VWS V14.01,2013-03-01 17:30:00,
2013-03-01 12:32:00,48.1,29.9,29.96,SW,218,1.0,1.0,49,0.00,,---,0.00,VWS V14.01,2013-03-01 17:32:00,
2013-03-01 12:38:00,49.0,31.2,29.96,NE,56,1.0,7.0,50,0.00,,---,0.00,VWS V14.01,2013-03-01 17:38:00,
2013-03-01 12:44:00,49.4,30.5,29.95,ESE,123,1.0,7.0,48,0.00,,---,0.00,VWS V14.01,2013-03-01 17:44:00,
2013-03-01 12:50:00,49.3,32.0,29.95,SW,224,2.0,7.0,51,0.00,,---,0.00,VWS V14.01,2013-03-01 17:50:00,
2013-03-01 12:56:00,50.0,31.1,29.95,NNW,346,1.0,7.0,48,0.00,,---,0.00,VWS V14.01,2013-03-01 17:56:00,
2013-03-01 13:00:00,51.0,30.4,29.92,North,356,2.0,3.0,45,0.00,,---,0.00,VWS V14.01,2013-03-01 18:00:00,
2013-03-01 13:02:00,50.5,31.6,29.94,NW,304,1.0,5.0,48,0.00,,---,0.00,VWS V14.01,2013-03-01 18:02:00,
2013-03-01 13:08:00,50.5,30.0,29.94,SSE,155,0.0,5.0,45,0.00,,---,0.00,VWS V14.01,2013-03-01 18:08:00,
2013-03-01 13:14:00,51.4,31.9,29.94,NW,308,1.0,5.0,47,0.00,,---,0.00,VWS V14.01,2013-03-01 18:14:00,
2013-03-01 13:21:00,51.8,32.2,29.93,West,262,1.0,5.0,47,0.00,,---,0.00,VWS V14.01,2013-03-01 18:21:00,
2013-03-01 13:27:00,52.4,31.7,29.93,West,259,1.0,5.0,45,0.00,,---,0.00,VWS V14.01,2013-03-01 18:27:00,
2013-03-01 13:30:00,51.0,31.0,29.91,SSE,149,2.0,5.0,46,0.00,,---,0.00,VWS V14.01,2013-03-01 18:30:00,
2013-03-01 13:33:00,52.7,32.5,29.92,WNW,293,2.0,2.0,46,0.00,,---,0.00,VWS V14.01,2013-03-01 18:33:00,
2013-03-01 13:39:00,52.8,30.9,29.92,SW,224,1.0,3.0,43,0.00,,---,0.00,VWS V14.01,2013-03-01 18:39:00,
2013-03-01 13:47:00,51.8,31.7,29.92,SW,224,2.0,3.0,46,0.00,,---,0.00,VWS V14.01,2013-03-01 18:47:00,
2013-03-01 13:53:00,51.3,31.2,29.92,SSE,164,2.0,3.0,46,0.00,,---,0.00,VWS V14.01,2013-03-01 18:53:00,
2013-03-01 13:59:00,51.0,31.0,29.92,NW,322,1.0,3.0,46,0.00,,---,0.00,VWS V14.01,2013-03-01 18:59:00,
2013-03-01 14:00:00,50.4,30.4,29.90,NW,308,2.0,4.0,46,0.00,,---,0.00,VWS V14.01,2013-03-01 19:00:00,
2013-03-01 14:05:00,50.7,32.2,29.91,NW,323,0.0,2.0,49,0.00,,---,0.00,VWS V14.01,2013-03-01 19:05:00,
2013-03-01 14:11:00,50.6,30.6,29.91,SSE,160,1.0,3.0,46,0.00,,---,0.00,VWS V14.01,2013-03-01 19:11:00,
2013-03-01 14:17:00,51.0,31.5,29.91,West,264,1.0,3.0,47,0.00,,---,0.00,VWS V14.01,2013-03-01 19:17:00,
2013-03-01 14:23:00,50.9,30.9,29.91,WNW,290,1.0,5.0,46,0.00,,---,0.00,VWS V14.01,2013-03-01 19:23:00,
2013-03-01 14:29:00,51.0,31.0,29.91,SSE,163,1.0,5.0,46,0.00,,---,0.00,VWS V14.01,2013-03-01 19:29:00,
2013-03-01 14:30:00,51.2,32.7,29.89,SE,129,1.0,4.0,49,0.00,,---,0.00,VWS V14.01,2013-03-01 19:30:00,
2013-03-01 14:35:00,51.2,31.1,29.91,SE,139,2.0,4.0,46,0.00,,---,0.00,VWS V14.01,2013-03-01 19:35:00,
2013-03-01 14:41:00,51.0,31.0,29.91,WSW,252,0.0,4.0,46,0.00,,---,0.00,VWS V14.01,2013-03-01 19:41:00,
2013-03-01 14:47:00,50.9,30.9,29.90,SSW,194,1.0,4.0,46,0.00,,---,0.00,VWS V14.01,2013-03-01 19:47:00,
2013-03-01 14:53:00,50.7,31.2,29.90,WNW,297,1.0,4.0,47,0.00,,---,0.00,VWS V14.01,2013-03-01 19:53:00,
2013-03-01 14:59:00,50.5,30.5,29.90,NW,305,2.0,4.0,46,0.00,,---,0.00,VWS V14.01,2013-03-01 19:59:00,
2013-03-01 15:00:00,53.1,31.2,29.89,NNW,342,5.0,6.0,43,0.00,,---,0.00,VWS V14.01,2013-03-01 20:00:00,
2013-03-01 15:06:00,50.2,30.8,29.90,NW,309,0.0,2.0,47,0.00,,---,0.00,VWS V14.01,2013-03-01 20:06:00,
2013-03-01 15:12:00,50.4,31.5,29.90,West,271,1.0,2.0,48,0.00,,---,0.00,VWS V14.01,2013-03-01 20:12:00,
2013-03-01 15:18:00,50.8,31.8,29.90,WSW,253,0.0,2.0,48,0.00,,---,0.00,VWS V14.01,2013-03-01 20:18:00,
2013-03-01 15:24:00,50.7,32.2,29.90,SSE,148,0.0,4.0,49,0.00,,---,0.00,VWS V14.01,2013-03-01 20:24:00,
2013-03-01 15:30:00,51.1,32.6,29.89,East,101,1.0,4.0,49,0.00,,---,0.00,VWS V14.01,2013-03-01 20:30:00,
2013-03-01 15:36:00,51.4,31.9,29.89,NNW,330,1.0,4.0,47,0.00,,---,0.00,VWS V14.01,2013-03-01 20:36:00,
2013-03-01 15:42:00,51.9,32.3,29.90,SSE,159,1.0,4.0,47,0.00,,---,0.00,VWS V14.01,2013-03-01 20:42:00,
2013-03-01 15:48:00,52.3,32.2,29.89,WSW,244,0.0,4.0,46,0.00,,---,0.00,VWS V14.01,2013-03-01 20:48:00,
2013-03-01 15:54:00,53.3,32.5,29.89,WNW,285,0.0,4.0,45,0.00,,---,0.00,VWS V14.01,2013-03-01 20:54:00,
2013-03-01 16:00:00,53.1,31.2,29.89,NNW,342,5.0,6.0,43,0.00,,---,0.00,VWS V14.01,2013-03-01 21:00:00,
2013-03-01 16:06:00,52.6,31.9,29.89,NNW,335,2.0,5.0,45,0.00,,---,0.00,VWS V14.01,2013-03-01 21:06:00,
2013-03-01 16:12:00,52.7,31.4,29.89,WSW,249,0.0,5.0,44,0.00,,---,0.00,VWS V14.01,2013-03-01 21:12:00,
2013-03-01 16:18:00,53.0,31.7,29.89,SW,215,2.0,5.0,44,0.00,,---,0.00,VWS V14.01,2013-03-01 21:18:00,
2013-03-01 16:24:00,53.0,32.2,29.89,WSW,253,1.0,5.0,45,0.00,,---,0.00,VWS V14.01,2013-03-01 21:24:00,
2013-03-01 16:30:00,52.9,32.2,29.89,West,271,1.0,6.0,45,0.00,,---,0.00,VWS V14.01,2013-03-01 21:30:00,
2013-03-01 16:36:00,52.7,32.0,29.89,NNW,345,2.0,6.0,45,0.00,,---,0.00,VWS V14.01,2013-03-01 21:36:00,
2013-03-01 16:42:00,52.0,32.4,29.89,NNE,25,0.0,6.0,47,0.00,,---,0.00,VWS V14.01,2013-03-01 21:42:00,
2013-03-01 16:49:00,51.3,31.2,29.90,WSW,256,1.0,6.0,46,0.00,,---,0.00,VWS V14.01,2013-03-01 21:49:00,
2013-03-01 16:55:00,50.8,31.8,29.90,NNW,328,0.0,6.0,48,0.00,,---,0.00,VWS V14.01,2013-03-01 21:55:00,
2013-03-01 17:00:00,50.6,31.6,29.90,West,260,1.0,6.0,48,0.00,,---,0.00,VWS V14.01,2013-03-01 22:00:00,
2013-03-01 17:07:00,50.4,32.0,29.90,SSW,210,0.0,3.0,49,0.00,,---,0.00,VWS V14.01,2013-03-01 22:07:00,
2013-03-01 17:13:00,50.3,31.9,29.90,South,186,0.0,3.0,49,0.00,,---,0.00,VWS V14.01,2013-03-01 22:13:00,
2013-03-01 17:19:00,50.1,32.2,29.90,South,186,0.0,3.0,50,0.00,,---,0.00,VWS V14.01,2013-03-01 22:19:00,
2013-03-01 17:25:00,49.9,31.5,29.90,South,186,0.0,3.0,49,0.00,,---,0.00,VWS V14.01,2013-03-01 22:25:00,
2013-03-01 17:30:00,49.6,31.7,29.90,South,186,0.0,3.0,50,0.00,,---,0.00,VWS V14.01,2013-03-01 22:30:00,
2013-03-01 17:37:00,49.5,31.6,29.90,North,359,0.0,2.0,50,0.00,,---,0.00,VWS V14.01,2013-03-01 22:37:00,
2013-03-01 17:43:00,49.3,31.5,29.90,SSW,207,0.0,2.0,50,0.00,,---,0.00,VWS V14.01,2013-03-01 22:43:00,
2013-03-01 17:49:00,49.0,32.6,29.91,SSW,205,2.0,7.0,53,0.00,,---,0.00,VWS V14.01,2013-03-01 22:49:00,
2013-03-01 17:55:00,48.6,33.2,29.91,WSW,250,0.0,7.0,55,0.00,,---,0.00,VWS V14.01,2013-03-01 22:55:00,
2013-03-01 18:00:00,48.3,32.9,29.91,SSE,157,1.0,7.0,55,0.00,,---,0.00,VWS V14.01,2013-03-01 23:00:00,
2013-03-01 18:07:00,48.0,32.6,29.91,South,176,1.0,2.0,55,0.00,,---,0.00,VWS V14.01,2013-03-01 23:07:00,
2013-03-01 18:13:00,47.6,32.7,29.92,East,96,2.0,3.0,56,0.00,,---,0.00,VWS V14.01,2013-03-01 23:13:00,
2013-03-01 18:19:00,47.2,32.3,29.92,ESE,115,4.0,11.0,56,0.00,,---,0.00,VWS V14.01,2013-03-01 23:19:00,
2013-03-01 18:25:00,46.8,32.4,29.92,ESE,117,0.0,11.0,57,0.00,,---,0.00,VWS V14.01,2013-03-01 23:25:00,
2013-03-01 18:30:00,46.6,32.2,29.93,SSE,167,2.0,11.0,57,0.00,,---,0.00,VWS V14.01,2013-03-01 23:30:00,
2013-03-01 18:35:00,46.5,32.1,29.93,SE,135,1.0,4.0,57,0.00,,---,0.00,VWS V14.01,2013-03-01 23:35:00,
2013-03-01 18:41:00,46.3,32.3,29.93,WSW,248,0.0,4.0,58,0.00,,---,0.00,VWS V14.01,2013-03-01 23:41:00,
2013-03-01 18:47:00,46.1,32.2,29.93,East,85,0.0,4.0,58,0.00,,---,0.00,VWS V14.01,2013-03-01 23:47:00,
2013-03-01 18:53:00,46.0,32.5,29.93,East,99,1.0,4.0,59,0.00,,---,0.00,VWS V14.01,2013-03-01 23:53:00,
2013-03-01 18:59:00,45.7,31.8,29.94,West,262,2.0,6.0,58,0.00,,---,0.00,VWS V14.01,2013-03-01 23:59:00,
2013-03-01 19:00:00,43.8,32.4,29.95,ESE,117,0.0,2.0,64,0.00,,---,0.00,VWS V14.01,2013-03-02 00:00:00,
2013-03-01 19:05:00,45.5,32.4,29.94,SE,134,1.0,2.0,60,0.00,,---,0.00,VWS V14.01,2013-03-02 00:05:00,
2013-03-01 19:11:00,45.3,32.2,29.94,SSE,164,1.0,2.0,60,0.00,,---,0.00,VWS V14.01,2013-03-02 00:11:00,
2013-03-01 19:17:00,45.1,32.1,29.94,SSE,162,0.0,2.0,60,0.00,,---,0.00,VWS V14.01,2013-03-02 00:17:00,
2013-03-01 19:23:00,44.9,32.3,29.94,SSE,160,1.0,2.0,61,0.00,,---,0.00,VWS V14.01,2013-03-02 00:23:00,
2013-03-01 19:29:00,44.6,32.0,29.94,SSE,167,1.0,2.0,61,0.00,,---,0.00,VWS V14.01,2013-03-02 00:29:00,
2013-03-01 19:30:00,42.9,32.3,29.95,SE,138,0.0,2.0,66,0.00,,---,0.00,VWS V14.01,2013-03-02 00:30:00,
2013-03-01 19:36:00,44.4,31.8,29.94,SE,132,0.0,1.0,61,0.00,,---,0.00,VWS V14.01,2013-03-02 00:36:00,
2013-03-01 19:42:00,44.2,31.6,29.95,SE,130,0.0,2.0,61,0.00,,---,0.00,VWS V14.01,2013-03-02 00:42:00,
2013-03-01 19:48:00,44.1,31.9,29.95,SE,129,0.0,2.0,62,0.00,,---,0.00,VWS V14.01,2013-03-02 00:48:00,
2013-03-01 19:54:00,43.9,32.1,29.95,ESE,115,0.0,2.0,63,0.00,,---,0.00,VWS V14.01,2013-03-02 00:54:00,
2013-03-01 20:00:00,43.8,32.4,29.95,ESE,117,1.0,2.0,64,0.00,,---,0.00,VWS V14.01,2013-03-02 01:00:00,
2013-03-01 20:06:00,43.5,32.5,29.95,East,87,0.0,2.0,65,0.00,,---,0.00,VWS V14.01,2013-03-02 01:06:00,
2013-03-01 20:12:00,43.4,32.0,29.95,East,88,1.0,2.0,64,0.00,,---,0.00,VWS V14.01,2013-03-02 01:12:00,
2013-03-01 20:18:00,43.2,31.9,29.95,SE,132,0.0,2.0,64,0.00,,---,0.00,VWS V14.01,2013-03-02 01:18:00,
2013-03-01 20:24:00,43.1,32.5,29.95,SE,133,0.0,2.0,66,0.00,,---,0.00,VWS V14.01,2013-03-02 01:24:00,
2013-03-01 20:30:00,42.9,32.3,29.95,SE,139,0.0,2.0,66,0.00,,---,0.00,VWS V14.01,2013-03-02 01:30:00,
2013-03-01 20:36:00,42.8,31.9,29.95,SE,143,1.0,2.0,65,0.00,,---,0.00,VWS V14.01,2013-03-02 01:36:00,
2013-03-01 20:42:00,42.8,31.9,29.95,SE,127,1.0,2.0,65,0.00,,---,0.00,VWS V14.01,2013-03-02 01:42:00,
2013-03-01 20:48:00,42.8,31.9,29.95,ESE,113,1.0,2.0,65,0.00,,---,0.00,VWS V14.01,2013-03-02 01:48:00,
2013-03-01 20:54:00,42.6,32.0,29.95,ESE,122,0.0,2.0,66,0.00,,---,0.00,VWS V14.01,2013-03-02 01:54:00,
2013-03-01 21:00:00,42.5,32.0,29.95,ESE,122,1.0,2.0,66,0.00,,---,0.00,VWS V14.01,2013-03-02 02:00:00,
2013-03-01 21:06:00,42.4,32.2,29.95,ESE,121,0.0,1.0,67,0.00,,---,0.00,VWS V14.01,2013-03-02 02:06:00,
2013-03-01 21:12:00,42.3,32.1,29.96,ESE,107,0.0,2.0,67,0.00,,---,0.00,VWS V14.01,2013-03-02 02:12:00,
2013-03-01 21:18:00,42.2,32.0,29.96,ESE,105,0.0,2.0,67,0.00,,---,0.00,VWS V14.01,2013-03-02 02:18:00,
2013-03-01 21:24:00,42.2,32.4,29.96,ESE,105,0.0,2.0,68,0.00,,---,0.00,VWS V14.01,2013-03-02 02:24:00,
2013-03-01 21:30:00,42.1,32.0,29.96,ESE,106,0.0,2.0,67,0.00,,---,0.00,VWS V14.01,2013-03-02 02:30:00,
2013-03-01 21:36:00,42.1,32.0,29.96,ESE,106,0.0,1.0,67,0.00,,---,0.00,VWS V14.01,2013-03-02 02:36:00,
2013-03-01 21:42:00,42.0,32.6,29.97,ESE,106,0.0,1.0,69,0.00,,---,0.00,VWS V14.01,2013-03-02 02:42:00,
2013-03-01 21:48:00,41.9,32.1,29.96,ESE,106,0.0,1.0,68,0.00,,---,0.00,VWS V14.01,2013-03-02 02:48:00,
2013-03-01 21:54:00,41.8,32.0,29.96,ESE,105,0.0,1.0,68,0.00,,---,0.00,VWS V14.01,2013-03-02 02:54:00,
2013-03-01 22:00:00,41.8,32.4,29.96,ESE,106,0.0,1.0,69,0.00,,---,0.00,VWS V14.01,2013-03-02 03:00:00,
2013-03-01 22:06:00,41.7,32.3,29.96,ESE,106,0.0,0.0,69,0.00,,---,0.00,VWS V14.01,2013-03-02 03:06:00,
2013-03-01 22:13:00,41.6,31.8,29.96,ESE,106,0.0,0.0,68,0.00,,---,0.00,VWS V14.01,2013-03-02 03:13:00,
2013-03-01 22:19:00,41.5,32.5,29.96,ESE,106,0.0,0.0,70,0.00,,---,0.00,VWS V14.01,2013-03-02 03:19:00,
2013-03-01 22:25:00,41.4,32.4,29.96,ESE,105,0.0,0.0,70,0.00,,---,0.00,VWS V14.01,2013-03-02 03:25:00,
2013-03-01 22:30:00,41.3,32.3,29.96,ESE,106,0.0,0.0,70,0.00,,---,0.00,VWS V14.01,2013-03-02 03:30:00,
2013-03-01 22:37:00,41.2,32.2,29.96,ESE,106,0.0,0.0,70,0.00,,---,0.00,VWS V14.01,2013-03-02 03:37:00,
2013-03-01 22:43:00,41.1,32.4,29.96,ESE,106,0.0,0.0,71,0.00,,---,0.00,VWS V14.01,2013-03-02 03:43:00,
2013-03-01 22:49:00,41.1,32.1,29.96,ESE,106,0.0,0.0,70,0.00,,---,0.00,VWS V14.01,2013-03-02 03:49:00,
2013-03-01 22:55:00,41.0,32.7,29.96,ESE,106,0.0,0.0,72,0.00,,---,0.00,VWS V14.01,2013-03-02 03:55:00,
2013-03-01 23:00:00,41.0,32.7,29.96,ESE,106,0.0,0.0,72,0.00,,---,0.00,VWS V14.01,2013-03-02 04:00:00,
2013-03-01 23:07:00,40.9,32.6,29.95,ESE,105,0.0,0.0,72,0.00,,---,0.00,VWS V14.01,2013-03-02 04:07:00,
2013-03-01 23:13:00,40.9,32.6,29.95,ESE,106,0.0,0.0,72,0.00,,---,0.00,VWS V14.01,2013-03-02 04:13:00,
2013-03-01 23:19:00,40.9,32.9,29.95,ESE,106,0.0,0.0,73,0.00,,---,0.00,VWS V14.01,2013-03-02 04:19:00,
2013-03-01 23:25:00,40.8,32.8,29.95,ESE,105,0.0,0.0,73,0.00,,---,0.00,VWS V14.01,2013-03-02 04:25:00,
2013-03-01 23:30:00,40.4,32.8,29.94,ESE,106,0.0,0.0,74,0.00,,---,0.00,VWS V14.01,2013-03-02 04:30:00,
2013-03-01 23:31:00,40.8,33.2,29.95,ESE,105,0.0,0.0,74,0.00,,---,0.00,VWS V14.01,2013-03-02 04:31:00,
2013-03-01 23:37:00,40.7,32.7,29.95,ESE,106,0.0,0.0,73,0.00,,---,0.00,VWS V14.01,2013-03-02 04:37:00,
2013-03-01 23:43:00,40.7,32.7,29.95,ESE,105,0.0,0.0,73,0.00,,---,0.00,VWS V14.01,2013-03-02 04:43:00,
2013-03-01 23:49:00,40.6,32.3,29.94,ESE,106,0.0,0.0,72,0.00,,---,0.00,VWS V14.01,2013-03-02 04:49:00,
2013-03-01 23:55:00,40.6,33.0,29.95,ESE,106,0.0,0.0,74,0.00,,---,0.00,VWS V14.01,2013-03-02 04:55:00,